GW1104 Weather Reports


Display with metric or nautical units.
time (UTC)temp
F
wind
direction
speed
MPH
gust
MPH
rain 1hr
in
rain 24hr
in
rain mn
in
humidity
%
barometer
mb
20260506080331 64 142 3.0 6.0 0.00 0.01 0.00 73 1009.8
20260506073326 65 188 3.0 11.0 0.00 0.01 0.00 70 1010.0
20260506072330 65 189 4.0 9.0 0.00 0.01 0.00 69 1010.0
20260506071315 66 182 4.0 9.0 0.00 0.01 0.00 68 1010.0
20260506070348 66 175 4.0 8.0 0.00 0.01 0.00 67 1009.9
20260506062314 67 161 3.0 8.0 0.00 0.01 0.00 65 1010.3
20260506061328 67 193 3.0 9.0 0.00 0.01 0.00 64 1010.3
20260506060317 67 193 4.0 15.0 0.00 0.01 0.00 64 1010.3
20260506051345 67 218 3.0 7.0 0.00 0.01 0.00 65 1010.7
20260506050331 67 143 4.0 10.0 0.00 0.01 0.00 64 1010.8
20260506044324 67 125 3.0 9.0 0.00 0.01 0.00 64 1010.9
20260506043311 67 197 6.0 14.0 0.00 0.01 0.00 64 1011.0
20260506042326 67 148 3.0 10.0 0.00 0.01 0.00 64 1010.9
20260506041331 67 207 4.0 10.0 0.00 0.01 0.00 64 1010.8
20260506040317 67 138 2.0 6.0 0.00 0.01 0.01 64 1010.9
20260506035316 67 191 4.0 9.0 0.00 0.01 0.01 63 1010.9
20260506034340 68 186 3.0 7.0 0.00 0.01 0.01 62 1010.8
20260506033324 68 180 4.0 10.0 0.00 0.01 0.01 61 1010.7
20260506032323 68 157 4.0 10.0 0.00 0.01 0.01 60 1010.7
20260506031338 69 147 4.0 10.0 0.00 0.01 0.01 58 1010.7
20260506030325 69 166 4.0 12.0 0.00 0.01 0.01 56 1010.7
20260506025329 69 169 3.0 6.0 0.00 0.01 0.01 55 1010.5
20260506024343 70 170 3.0 11.0 0.00 0.01 0.01 54 1010.4
20260506023337 70 188 4.0 7.0 0.00 0.01 0.01 53 1010.6
20260506022326 70 214 4.0 8.0 0.00 0.01 0.01 52 1010.5
20260506021312 71 172 4.0 6.0 0.00 0.01 0.01 52 1010.6
20260506020345 71 159 3.0 9.0 0.00 0.01 0.01 51 1010.6
20260506015327 71 158 4.0 9.0 0.00 0.01 0.01 51 1010.5
20260506014314 71 129 5.0 8.0 0.00 0.01 0.01 50 1010.5
20260506013327 72 149 4.0 6.0 0.00 0.01 0.01 50 1010.4
20260506012314 72 148 3.0 7.0 0.00 0.01 0.01 49 1010.2
20260506011318 72 180 5.0 8.0 0.00 0.01 0.01 47 1010.1
20260506010352 73 191 4.0 8.0 0.00 0.01 0.01 46 1009.9
20260506005316 73 148 4.0 6.0 0.00 0.01 0.01 45 1010.0
20260506004330 73 151 2.0 8.0 0.00 0.01 0.01 44 1009.9
20260506003318 74 180 3.0 10.0 0.00 0.01 0.01 43 1009.9
20260506002325 74 118 3.0 9.0 0.00 0.01 0.01 43 1009.9
20260506001332 74 182 3.0 6.0 0.00 0.01 0.01 42 1009.8
20260506000320 74 196 2.0 10.0 0.00 0.01 0.01 42 1009.6
20260505235352 74 186 2.0 6.0 0.00 0.01 0.01 42 1009.6
20260505234346 74 185 3.0 5.0 0.00 0.01 0.01 40 1009.5
20260505233312 75 179 2.0 5.0 0.00 0.01 0.01 40 1009.4
20260505232318 75 166 5.0 10.0 0.00 0.01 0.01 40 1009.4
20260505231325 75 202 3.0 9.0 0.00 0.01 0.01 40 1009.3
20260505230314 75 230 4.0 9.0 0.00 0.01 0.01 39 1009.1
20260505225337 76 211 3.0 6.0 0.00 0.01 0.01 38 1009.2
20260505224324 76 236 5.0 11.0 0.00 0.01 0.01 38 1009.1
20260505223314 76 201 4.0 6.0 0.00 0.01 0.01 37 1009.0
20260505222329 76 191 5.0 18.0 0.00 0.01 0.01 37 1008.9
20260505221336 77 219 3.0 11.0 0.00 0.01 0.01 37 1008.8
20260505220320 78 151 7.0 16.0 0.00 0.01 0.01 36 1008.9
20260505215325 78 172 6.0 11.0 0.00 0.01 0.01 36 1008.7
20260505214339 78 206 4.0 11.0 0.00 0.01 0.01 36 1008.6
20260505213323 78 217 7.0 12.0 0.00 0.01 0.01 36 1008.4
20260505212330 78 180 4.0 11.0 0.00 0.01 0.01 35 1008.5
20260505211335 78 204 7.0 16.0 0.00 0.01 0.01 34 1008.4
20260505210329 79 161 5.0 10.0 0.00 0.01 0.01 34 1008.2
20260505205353 79 189 6.0 11.0 0.00 0.01 0.01 34 1008.0
20260505204338 79 220 5.0 16.0 0.00 0.01 0.01 34 1008.1
20260505203327 79 182 5.0 12.0 0.00 0.01 0.01 35 1008.1
20260505202314 80 219 5.0 12.0 0.00 0.01 0.01 33 1008.1
20260505201319 80 236 7.0 15.0 0.00 0.01 0.01 33 1008.5
20260505200325 80 211 5.0 22.0 0.00 0.01 0.01 33 1008.3
20260505195328 80 263 4.0 10.0 0.00 0.01 0.01 36 1008.5
20260505194313 79 170 6.0 13.0 0.00 0.01 0.01 37 1008.4
20260505193318 80 213 5.0 12.0 0.00 0.01 0.01 35 1008.6
20260505192331 80 245 6.0 18.0 0.00 0.01 0.01 35 1008.7
20260505191338 80 211 5.0 9.0 0.00 0.01 0.01 36 1008.7
20260505190324 80 166 2.0 11.0 0.00 0.01 0.01 37 1008.8
20260505185354 79 107 4.0 10.0 0.00 0.01 0.01 39 1008.8
20260505184319 79 174 6.0 11.0 0.00 0.01 0.01 40 1009.1
20260505183331 79 163 6.0 10.0 0.00 0.01 0.01 40 1009.1
20260505182334 80 246 4.0 11.0 0.00 0.01 0.01 37 1009.4
20260505181328 80 225 6.0 10.0 0.00 0.01 0.01 37 1009.7
20260505180312 79 205 5.0 10.0 0.00 0.01 0.01 40 1009.5
20260505175315 79 221 6.0 13.0 0.00 0.01 0.01 39 1009.7
20260505174327 78 298 5.0 13.0 0.00 0.01 0.01 41 1009.7
20260505173358 78 178 4.0 13.0 0.00 0.01 0.01 41 1009.8
20260505172323 78 232 5.0 9.0 0.00 0.01 0.01 43 1009.7
20260505171328 77 211 5.0 11.0 0.00 0.01 0.01 45 1009.8
20260505170312 76 197 3.0 9.0 0.00 0.01 0.01 46 1010.1
20260505165334 76 286 5.0 10.0 0.00 0.01 0.01 45 1010.3
20260505164316 76 211 6.0 11.0 0.00 0.01 0.01 45 1010.4
20260505163346 76 267 5.0 9.0 0.00 0.01 0.01 47 1010.6
20260505162331 76 170 6.0 9.0 0.00 0.01 0.01 46 1010.7
20260505161346 76 205 2.0 8.0 0.00 0.01 0.01 47 1010.5
20260505160311 75 215 3.0 11.0 0.00 0.01 0.01 49 1010.9
20260505153333 74 224 5.0 9.0 0.00 0.01 0.01 50 1011.2
20260505152317 73 238 3.0 7.0 0.00 0.01 0.01 50 1011.2
20260505151319 72 165 4.0 9.0 0.00 0.01 0.01 52 1011.1
20260505150332 72 198 3.0 7.0 0.00 0.01 0.01 54 1011.3
20260505140331 70 226 3.0 8.0 0.00 0.01 0.01 56 1011.7
20260505124322 67 227 2.0 5.0 0.00 0.01 0.01 63 1011.1
20260505123317 66 209 2.0 9.0 0.00 0.01 0.01 65 1011.0
20260505122323 65 180 2.0 4.0 0.00 0.01 0.01 67 1011.0
20260505121328 64 156 2.0 6.0 0.00 0.01 0.01 70 1010.9
20260505120332 62 151 3.0 8.0 0.00 0.01 0.01 77 1011.0
20260505115315 59 141 2.0 6.0 0.00 0.01 0.01 84 1011.0
20260505114330 57 150 3.0 5.0 0.00 0.01 0.01 90 1011.1
20260505113335 55 123 2.0 3.0 0.00 0.01 0.01 90 1011.1
20260505112318 55 96 1.0 2.0 0.01 0.01 0.01 88 1011.2
20260505111331 55 60 0.0 1.0 0.01 0.01 0.01 87 1010.8
20260505110318 56 60 0.0 2.0 0.01 0.01 0.01 86 1010.9
20260505101326 58 251 1.0 3.0 0.00 0.00 0.00 69 1011.5
20260505100314 58 238 2.0 5.0 0.00 0.00 0.00 70 1011.4
20260505095318 58 162 1.0 4.0 0.00 0.00 0.00 69 1011.3
20260505094352 58 251 2.0 3.0 0.00 0.00 0.00 69 1011.2
20260505093335 58 255 1.0 6.0 0.00 0.00 0.00 68 1011.0
20260505092323 58 299 2.0 4.0 0.00 0.00 0.00 69 1011.0
20260505091337 57 209 1.0 3.0 0.00 0.00 0.00 68 1010.7
20260505090324 57 185 1.0 3.0 0.00 0.00 0.00 68 1010.4
20260505085328 57 189 0.0 3.0 0.00 0.00 0.00 67 1010.5
20260505084314 57 107 0.0 3.0 0.00 0.00 0.00 67 1010.4
20260505083318 58 193 0.0 2.0 0.00 0.00 0.00 66 1010.4
20260505082331 58 193 0.0 3.0 0.00 0.00 0.00 65 1010.4
20260505081336 58 306 1.0 3.0 0.00 0.00 0.00 65 1010.4